Location: Go?cza
(50.3372°N, 19.9313°E)
Time: 15:02:24
(UTC+00:00)

Meteor 1-28 Rocket - Pass Details

Date: 23 May 2024
Orbit: 474 x 490 km, 97.5° (Epoch: 12 June)

Event Time Altitude Azimuth Distance (km) Brightness Sun altitude
Exits shadow 02:00:00 - 204° (SSW) 1,982 5.6 -6.1°
Reaches altitude 10° 02:00:55 10° 211° (SSW) 1,658 5.1 -6.0°
Maximum altitude 02:03:48 23° 266° (W) 1,066 4.4 -5.7°
Drops below altitude 10° 02:06:42 10° 320° (NW) 1,663 5.8 -5.3°
Sets 02:09:05 0° 336° (NNW) 2,545 7.0 -5.0°
